Location: Vigevano
(45.3170°N, 8.8500°E)
Time: 00:37:58
(UTC+02:00)

ISS - Visible Passes

Search period start: 24 August 2019 00:00
Search period end: 03 September 2019 00:00
Orbit: 410 x 421 km, 51.6° (Epoch: 24 August)

Date Brightness Start Highest point End Pass type
(mag) Time Alt. Az. Time Alt. Az. Time Alt. Az.
28 Aug -1.9 05:35:49 10° SSW 05:38:35 24° SE 05:41:21 10° E visible
29 Aug -1.4 04:49:03 14° SSE 04:49:56 15° SE 04:51:55 10° E visible
30 Aug -3.5 05:35:12 19° SW 05:37:24 59° SE 05:40:43 10° ENE visible
31 Aug -2.8 04:48:24 35° SSE 04:48:38 36° SE 04:51:44 10° ENE visible
01 Sep -1.1 04:01:33 16° E 04:01:33 16° E 04:02:33 10° E visible
01 Sep -3.6 05:34:25 22° WSW 05:36:23 63° NNW 05:39:43 10° ENE visible
02 Sep -3.9 04:47:30 86° SE 04:47:30 86° SE 04:50:50 10° ENE visible
